This is the latest recevied weather packets stored in our database for station/object WW3TRG. If no packets are shown the sender has not sent any weather packets the latest 10 day(s).
| Time | Temp. | Humidity | Pressure | Rain* | Wind** | Luminosity | Snow |
|---|---|---|---|---|---|---|---|
| 1777917529 | 21.67° C | 42% | 1009.9 hPa | 0 mm | - | 672 W/m² | - |
| 1777917225 | 21.67° C | 39% | 1009.8 hPa | 0 mm | - | 688 W/m² | - |
| 1777916924 | 21.67° C | 41% | 1009.8 hPa | 0 mm | - | 666 W/m² | - |
| 1777916621 | 21.67° C | 40% | 1009.9 hPa | 0 mm | - | 669 W/m² | - |
| 1777916318 | 21.11° C | 40% | 1009.9 hPa | 0 mm | - | 563 W/m² | - |
| 1777916015 | 21.67° C | 43% | 1010 hPa | 0 mm | - | 667 W/m² | - |
| 1777915711 | 21.11° C | 39% | 1010.2 hPa | 0 mm | - | 661 W/m² | - |
| 1777915408 | 21.11° C | 42% | 1010 hPa | 0 mm | - | 609 W/m² | - |
| 1777915104 | 21.11° C | 39% | 1010.4 hPa | 0 mm | - | 549 W/m² | - |
| 1777914801 | 21.11° C | 40% | 1010.3 hPa | 0 mm | - | 380 W/m² | - |
| 1777914499 | 21.11° C | 40% | 1010.6 hPa | 0 mm | - | 613 W/m² | - |
| 1777914195 | 20.56° C | 41% | 1010.6 hPa | 0 mm | - | 213 W/m² | - |
| 1777913892 | 20.56° C | 40% | 1010.7 hPa | 0 mm | - | 619 W/m² | - |
| 1777913588 | 20.56° C | 40% | 1010.6 hPa | 0 mm | - | 664 W/m² | - |
| 1777913284 | 20.56° C | 43% | 1010.7 hPa | 0 mm | - | 621 W/m² | - |
| 1777912982 | 20° C | 40% | 1011 hPa | 0 mm | - | 530 W/m² | - |
| 1777912678 | 20° C | 40% | 1010.8 hPa | 0 mm | - | 643 W/m² | - |
| 1777912374 | 20° C | 43% | 1010.9 hPa | 0 mm | - | 639 W/m² | - |
| 1777912070 | 20° C | 41% | 1011 hPa | 0 mm | - | 696 W/m² | - |
| 1777911766 | 19.44° C | 44% | 1011.1 hPa | 0 mm | - | 697 W/m² | - |
| 1777911463 | 19.44° C | 44% | 1011.2 hPa | 0 mm | - | 640 W/m² | - |
| 1777911160 | 18.89° C | 41% | 1011.3 hPa | 0 mm | - | 573 W/m² | - |
| 1777910857 | 20° C | 39% | 1011.4 hPa | 0 mm | - | 708 W/m² | - |
| 1777910553 | 20° C | 40% | 1011.4 hPa | 0 mm | - | 623 W/m² | - |
| 1777910251 | 19.44° C | 39% | 1011.6 hPa | 0 mm | - | 659 W/m² | - |
* Rain latest hour (hover to see other rain measurements)
** Current wind speed in m/s (hover to see current wind gust speed)